Weather History for Wainwright, AK

Change the Weather History Date:

Wednesday, February 6, 2013

  Actual Average (PABR) Record (PABR)
Temperature  
Mean Temperature -20 °F -14 °F  
Max Temperature -13 °F -8 °F 33 °F (1982)
Min Temperature -27 °F -20 °F -48 °F (1968)
Degree Days  
Heating Degree Days 85 79  
Month to date heating degree days 474  
Since 1 July heating degree days 11110  
Cooling Degree Days 0    
Month to date cooling degree days  
Year to date cooling degree days  
Moisture  
Dew Point -25 °F    
Average Humidity 76    
Maximum Humidity 84    
Minimum Humidity 69    
Precipitation  
Precipitation 0.00 in 0.01 in 0.13 in (1982)
Month to date precipitation 0.03  
Year to date precipitation 0.16  
Snow  
Snow 0.00 in 0.00 in 3.40 in (2003)
Month to date snowfall 0.5  
Since 1 July snowfall 26.9  
Snow Depth -    
Sea Level Pressure  
Sea Level Pressure 30.07 in    
Wind  
Wind Speed 5 mph (WNW)    
Max Wind Speed 10 mph    
Max Gust Speed -    
Visibility 5 miles    
Events Rain    
T = Trace of Precipitation, MM = Missing Value Source: NWS Daily Summary

Daily Weather History Graph

Daily Weather History Graph

Search for Another Location

Airport:

Trip Planner

Search our weather history database for the weather conditions in past years. The results will help you decide how hot, cold, wet, or windy it might be!

Date:

Astronomy

Feb. 06, 2013 Rise Set
Actual Time 11:03 AM AKST 4:45 PM AKST
Civil Twilight 9:42 AM AKST 6:07 PM AKST
Nautical Twilight 8:24 AM AKST 7:25 PM AKST
Astronomical Twilight 7:12 AM AKST 8:38 PM AKST
Moon No Moon Rise No Moon Set
Length of Visible Light 8h 24m
Length of Day
5h 41m
Waning Crescent, 15% of the Moon is Illuminated
Feb 6
Waning Crescent
Feb 9
New
Feb 17
First Quarter
Feb 25
Full
Mar 4
Last Quarter

Hourly Weather History & Observations

Time (AKST) Temp. Windchill Dew Point Humidity Pressure Visibility Wind Dir Wind Speed Gust Speed Precip Events Conditions
12:16 AM -20.2 °F -37.3 °F -25.6 °F 76% 30.17 in 2.5 mi North 6.9 mph - N/A   Haze
12:43 AM -22.0 °F -35.6 °F -27.4 °F 76% 30.17 in 4.0 mi NNE 4.6 mph - N/A   Haze
12:53 AM -24.0 °F -37.9 °F -29.9 °F 74% 30.18 in 4.0 mi NNE 4.6 mph - N/A   Haze
1:53 AM -22.0 °F -35.6 °F -27.9 °F 74% 30.18 in 7.0 mi NNE 4.6 mph - N/A   Overcast
2:49 AM -22.0 °F -33.0 °F -27.4 °F 76% 30.16 in 4.0 mi NNE 3.5 mph - N/A Rain Light Freezing Rain
3:04 AM -20.2 °F -37.3 °F -25.6 °F 76% 30.16 in 5.0 mi North 6.9 mph - N/A   Haze
3:53 AM -18.9 °F -35.8 °F -25.1 °F 74% 30.16 in 5.0 mi North 6.9 mph - N/A   Haze
4:53 AM -16.1 °F -30.6 °F -20.9 °F 79% 30.15 in 8.0 mi NNW 5.8 mph - N/A   Overcast
5:53 AM -17.0 °F - -22.0 °F 78% 30.14 in 5.0 mi Calm Calm - N/A   Haze
6:50 AM -25.6 °F -37.1 °F -32.8 °F 69% 30.13 in 8.0 mi WNW 3.5 mph - N/A   Scattered Clouds
6:53 AM -25.1 °F -39.1 °F -32.1 °F 70% 30.13 in 8.0 mi NW 4.6 mph - N/A   Partly Cloudy
7:53 AM -27.0 °F - -32.1 °F 77% 30.13 in 6.0 mi Calm Calm - N/A   Haze
8:02 AM -27.4 °F - -34.6 °F 69% 30.12 in 6.0 mi Calm Calm - N/A   Haze
8:53 AM -27.0 °F - -33.0 °F 73% 30.12 in 6.0 mi Calm Calm - N/A   Haze
9:22 AM -27.4 °F -39.2 °F -32.8 °F 75% 30.11 in 8.0 mi SSE 3.5 mph - N/A   Mostly Cloudy
9:53 AM -27.0 °F - -33.0 °F 73% 30.11 in 4.0 mi Calm Calm - N/A   Haze
10:09 AM -27.4 °F - -32.8 °F 75% 30.10 in 3.0 mi Calm Calm - N/A   Haze
10:16 AM -27.4 °F - -32.8 °F 75% 30.10 in 4.0 mi Calm Calm - N/A   Haze
10:23 AM -25.6 °F - -32.8 °F 69% 30.10 in 6.0 mi Calm Calm - N/A   Haze
10:53 AM -26.0 °F - -32.1 °F 73% 30.10 in 3.0 mi Calm Calm - N/A   Overcast
11:04 AM -25.6 °F -37.1 °F -32.8 °F 69% 30.09 in 1.8 mi SE 3.5 mph - N/A   Overcast
11:19 AM -25.6 °F -39.8 °F -32.8 °F 69% 30.09 in 2.5 mi SE 4.6 mph - N/A   Haze
11:51 AM -25.6 °F -37.1 °F -31.0 °F 76% 30.09 in 5.0 mi SE 3.5 mph - N/A   Haze
11:53 AM -25.1 °F -36.5 °F -31.0 °F 74% 30.09 in 6.0 mi SE 3.5 mph - N/A   Haze
12:21 PM -25.6 °F - -31.0 °F 76% 30.08 in 5.0 mi Calm Calm - N/A   Haze
12:32 PM -25.6 °F - -31.0 °F 76% 30.08 in 6.0 mi Calm Calm - N/A   Haze
12:53 PM -14.1 °F -31.3 °F -18.0 °F 82% 30.08 in 6.0 mi WNW 8.1 mph - N/A   Partly Cloudy
1:24 PM -14.8 °F -29.1 °F -20.2 °F 77% 30.07 in 2.5 mi WNW 5.8 mph - N/A   Haze
1:39 PM -14.8 °F -30.8 °F -18.4 °F 84% 30.07 in 2.5 mi WNW 6.9 mph - N/A   Haze
1:48 PM -14.8 °F -30.8 °F -18.4 °F 84% 30.07 in 4.0 mi WNW 6.9 mph - N/A   Haze
1:53 PM -14.1 °F -29.9 °F -20.0 °F 75% 30.07 in 4.0 mi WNW 6.9 mph - N/A   Haze
2:53 PM -14.1 °F -29.9 °F -18.9 °F 79% 30.05 in 7.0 mi WNW 6.9 mph - N/A   Overcast
3:20 PM -13.0 °F -28.6 °F -18.4 °F 77% 30.04 in 1.8 mi West 6.9 mph - N/A   Overcast
3:50 PM -13.0 °F -28.6 °F -18.4 °F 77% 30.04 in 3.0 mi West 6.9 mph - N/A   Haze
3:53 PM -13.0 °F -28.6 °F -18.0 °F 78% 30.04 in 4.0 mi West 6.9 mph - N/A   Haze
4:26 PM -13.0 °F -28.6 °F -18.4 °F 77% 30.03 in - West 6.9 mph - N/A   Unknown
4:53 PM -13.0 °F -28.6 °F -18.0 °F 78% 30.03 in 1.8 mi West 6.9 mph - N/A   Haze
6:17 PM -13.0 °F -31.3 °F -18.4 °F 77% 30.00 in 5.0 mi West 9.2 mph - N/A   Haze
6:53 PM -13.0 °F -31.3 °F -18.0 °F 78% 30.01 in 5.0 mi West 9.2 mph - N/A   Haze
7:53 PM -13.0 °F -32.4 °F -18.9 °F 75% 30.00 in 4.0 mi West 10.4 mph - N/A   Haze
8:03 PM -13.0 °F -32.4 °F -18.4 °F 77% 30.00 in 6.0 mi West 10.4 mph - N/A   Haze
8:13 PM -13.0 °F -32.4 °F -18.4 °F 77% 29.99 in 5.0 mi West 10.4 mph - N/A   Haze
8:24 PM -13.0 °F -31.3 °F -18.4 °F 77% 29.99 in 4.0 mi West 9.2 mph - N/A   Haze
8:51 PM -14.8 °F -33.5 °F -20.2 °F 77% 29.98 in 10.0 mi West 9.2 mph - N/A   Partly Cloudy
8:53 PM -14.1 °F -32.6 °F -20.0 °F 75% 29.99 in 10.0 mi West 9.2 mph - N/A   Partly Cloudy
9:46 PM -14.8 °F -33.5 °F -20.2 °F 77% 29.97 in 8.0 mi West 9.2 mph - N/A   Mostly Cloudy
9:53 PM -14.1 °F -33.7 °F -20.0 °F 75% 29.97 in 7.0 mi West 10.4 mph - N/A   Mostly Cloudy
10:53 PM -14.1 °F -32.6 °F -20.0 °F 75% 29.95 in 7.0 mi West 9.2 mph - N/A   Overcast
11:31 PM -14.8 °F -34.6 °F -20.2 °F 77% 29.94 in 8.0 mi West 10.4 mph - N/A   Scattered Clouds
11:53 PM -14.1 °F -33.7 °F -20.0 °F 75% 29.94 in 7.0 mi West 10.4 mph - N/A   Partly Cloudy